Location: Newark
(33.6333°S, 78.8500°W)
Time: 17:39:41
(UTC+00:00)

Courier 1B - Pass Details

Date: 26 September 2019
Orbit: 962 x 1209 km, 28.3° (Epoch: 23 October)

Event Time Altitude Azimuth Distance (km) Brightness Sun altitude
Rises 21:43:36 0° 286° (WNW) 4,111 12.5 18.0°
Reaches altitude 10° 21:46:32 10° 290° (WNW) 3,140 12.4 17.4°
Maximum altitude 21:54:10 57° 5° (N) 1,365 8.6 15.8°
Drops below altitude 10° 22:01:31 10° 82° (E) 3,020 9.5 14.3°
Sets 22:04:17 0° 85° (E) 3,944 10.0 13.7°
